Edinburgh Airport, United Kingdom

9:12 AM BST on August 28, 2016 (GMT +0100)
Edinburgh Airport

Weather History for EGPH - December, 2012

Change the Weather History Date:

Monday, December 17, 2012

  Actual Average Record
Temperature  
Mean Temperature 38 °F -  
Max Temperature 42 °F 43 °F 57 °F (2015)
Min Temperature 35 °F 33 °F 17 °F (2007)
Degree Days  
Heating Degree Days 26    
Moisture  
Dew Point 39 °F    
Average Humidity 95    
Maximum Humidity 100    
Minimum Humidity 87    
Precipitation  
Precipitation 0.00 in 0.08 in - ()
Sea Level Pressure  
Sea Level Pressure 29.44 in    
Wind  
Wind Speed 4 mph ()    
Max Wind Speed 9 mph    
Max Gust Speed -    
Visibility 4.4 miles    
Events Rain    
Averages and records for this station are not official NWS values.
T = Trace of Precipitation, MM = Missing Value Source: Averaged Metar Reports

Daily Weather History Graph

Daily Weather History Graph

Search for Another Location

Airport or City:

Trip Planner

Search our weather history database for the weather conditions in past years. The results will help you decide how hot, cold, wet, or windy it might be!

Date:

Astronomy

Dec. 17, 2012 Rise Set
Actual Time 8:40 AM GMT 3:39 PM GMT
Civil Twilight 7:53 AM GMT 4:26 PM GMT
Nautical Twilight 7:03 AM GMT 5:15 PM GMT
Astronomical Twilight 6:18 AM GMT 6:01 PM GMT
Moon 10:55 AM GMT (12/17) 9:35 PM GMT (12/17)
Length of Visible Light 8h 33m
Length of Day
6h 58m
Waxing Crescent, 23% of the Moon is Illuminated
Dec 17
Waxing Crescent
Dec 20
First Quarter
Dec 28
Full
Jan 5
Last Quarter
Jan 11
New

Hourly Weather History & Observations

Time (GMT) Temp. Windchill Dew Point Humidity Pressure Visibility Wind Dir Wind Speed Gust Speed Precip Events Conditions
12:20 AM 35.6 °F 31.7 °F 33.8 °F 93% 29.33 in - ENE 4.6 mph - N/A   Clear
12:50 AM 35.6 °F 29.9 °F 33.8 °F 93% 29.33 in 6.2 mi ENE 6.9 mph - N/A   Partly Cloudy
1:20 AM 39.2 °F 37.0 °F 37.4 °F 93% 29.33 in 6.2 mi Variable 3.5 mph - N/A   Partly Cloudy
1:50 AM 35.6 °F 32.8 °F 33.8 °F 93% 29.33 in - Variable 3.5 mph - N/A   Clear
2:20 AM 37.4 °F 30.8 °F 35.6 °F 93% 29.33 in 6.2 mi ENE 9.2 mph - N/A   Mostly Cloudy
2:50 AM 37.4 °F 31.4 °F 37.4 °F 100% 29.33 in 5.6 mi ENE 8.1 mph - N/A   Scattered Clouds
3:20 AM 39.2 °F 33.6 °F 37.4 °F 93% 29.33 in 6.2 mi ENE 8.1 mph - N/A   Mostly Cloudy
3:50 AM 39.2 °F 35.0 °F 37.4 °F 93% 29.33 in 6.2 mi ENE 5.8 mph - N/A   Overcast
4:20 AM 39.2 °F 34.2 °F 37.4 °F 93% 29.33 in 6.2 mi NE 6.9 mph - N/A   Scattered Clouds
4:50 AM 39.2 °F 35.0 °F 37.4 °F 93% 29.33 in 5.0 mi NE 5.8 mph - N/A   Light Drizzle
5:20 AM 39.2 °F 35.9 °F 37.4 °F 93% 29.33 in 5.0 mi ENE 4.6 mph - N/A Rain Light Rain
5:50 AM 39.2 °F 35.9 °F 37.4 °F 93% 29.33 in 5.0 mi NE 4.6 mph - N/A Rain Light Rain
6:20 AM 39.2 °F 35.9 °F 37.4 °F 93% 29.33 in 4.3 mi NE 4.6 mph - N/A Rain Light Rain
6:50 AM 39.2 °F 35.9 °F 37.4 °F 93% 29.36 in - NE 4.6 mph - N/A Rain Light Rain
7:20 AM 39.2 °F 37.0 °F 37.4 °F 93% 29.36 in 2.5 mi NE 3.5 mph - N/A Rain Light Rain
7:50 AM 39.2 °F - 37.4 °F 93% 29.36 in 3.1 mi NE 2.3 mph - N/A Rain Light Rain
8:20 AM 39.2 °F 37.0 °F 37.4 °F 93% 29.36 in 3.1 mi NE 3.5 mph - N/A   Mostly Cloudy
8:50 AM 37.4 °F 33.8 °F 37.4 °F 100% 29.36 in 3.1 mi ENE 4.6 mph - N/A   Mostly Cloudy
9:20 AM 39.2 °F 35.0 °F 37.4 °F 93% 29.39 in 3.1 mi ENE 5.8 mph - N/A   Mostly Cloudy
9:50 AM 37.4 °F - 37.4 °F 100% 29.39 in 3.1 mi Calm Calm - N/A   Mostly Cloudy
10:20 AM 39.2 °F 37.0 °F 39.2 °F 100% 29.39 in 3.1 mi NE 3.5 mph - N/A   Mostly Cloudy
10:50 AM 39.2 °F 35.9 °F 39.2 °F 100% 29.42 in 3.7 mi East 4.6 mph - N/A   Mostly Cloudy
11:20 AM 41.0 °F - 39.2 °F 93% 29.42 in 3.7 mi Variable 2.3 mph - N/A   Mostly Cloudy
11:50 AM 41.0 °F - 39.2 °F 93% 29.42 in 3.7 mi Calm Calm - N/A   Mostly Cloudy
12:20 PM 41.0 °F 39.0 °F 39.2 °F 93% 29.42 in 3.7 mi Variable 3.5 mph - N/A   Overcast
12:50 PM 41.0 °F - 39.2 °F 93% 29.44 in 3.7 mi Variable 2.3 mph - N/A   Overcast
1:20 PM 41.0 °F - 39.2 °F 93% 29.44 in 3.7 mi Calm Calm - N/A   Overcast
1:50 PM 42.8 °F - 41.0 °F 93% 29.44 in 5.0 mi Calm Calm - N/A   Scattered Clouds
2:20 PM 42.8 °F - 39.2 °F 87% 29.44 in 5.0 mi NW 2.3 mph - N/A   Scattered Clouds
2:50 PM 42.8 °F - 41.0 °F 93% 29.47 in 5.0 mi Calm Calm - N/A   Mostly Cloudy
3:20 PM 42.8 °F - 41.0 °F 93% 29.47 in 4.3 mi WNW 2.3 mph - N/A   Mostly Cloudy
3:50 PM 41.0 °F - 41.0 °F 100% 29.50 in 4.3 mi Calm Calm - N/A   Mostly Cloudy
4:20 PM 41.0 °F - 39.2 °F 93% 29.50 in 4.3 mi Calm Calm - N/A   Mostly Cloudy
4:50 PM 41.0 °F - 39.2 °F 93% 29.53 in 4.3 mi NW 2.3 mph - N/A   Mostly Cloudy
5:20 PM 41.0 °F - 41.0 °F 100% 29.53 in 4.3 mi Calm Calm - N/A   Mostly Cloudy
5:50 PM 41.0 °F - 41.0 °F 100% 29.53 in 5.0 mi Calm Calm - N/A   Mostly Cloudy
6:20 PM 42.8 °F 40.1 °F 41.0 °F 93% 29.56 in 4.3 mi North 4.6 mph - N/A   Mostly Cloudy
6:50 PM 42.8 °F 40.1 °F 41.0 °F 93% 29.56 in 5.0 mi NNW 4.6 mph - N/A   Mostly Cloudy
7:20 PM 42.8 °F 40.1 °F 41.0 °F 93% 29.59 in 5.0 mi NNW 4.6 mph - N/A   Mostly Cloudy
7:50 PM 42.8 °F - 41.0 °F 93% 29.62 in 3.7 mi Variable 2.3 mph - N/A Rain Light Rain
8:20 PM 41.0 °F - 41.0 °F 100% 29.62 in 4.3 mi Variable 2.3 mph - N/A Rain Light Rain
8:50 PM 41.0 °F - 41.0 °F 100% 29.65 in 3.7 mi West 2.3 mph - N/A   Overcast
9:20 PM 41.0 °F - 41.0 °F 100% 29.65 in 3.7 mi West 2.3 mph - N/A   Mostly Cloudy
9:50 PM 41.0 °F - 41.0 °F 100% 29.68 in 4.3 mi Calm Calm - N/A   Overcast